Home > Weather > Mudgee > Past weeks

Flag for Australia Past Weather in Mudgee, New South Wales, Australia — Yesterday and Last 2 Weeks

Now
46 °F

Cool.


Feels Like: 41 °F
Forecast: 36 / 55 °F
Wind: 12 mph from West

Location: Mudgee Aws

Current Time: May 28, 2016 at 9:48:46 PM

Latest Report: May 28, 2016 at 8:00 PM


Visibility: N/A

Pressure: 29.96 "Hg

Humidity: 83%

Dew Point: 42 °F

Location of MudgeeLocation

Past Weather in Mudgee — Graph

°F

Mudgee Temperature Yesterday

Maximum temperature yesterday: 55 °F (at 3:00 PM)
Minimum temperature yesterday: 44 °F (at 9:00 PM)
Average temperature yesterday: 49 °F

High & Low Weather Summary for the Past Weeks

 TemperatureHumidityPressure
High78 °F (May 14, 3:00 PM)100% (May 22, 8:00 AM)30.34 "Hg (May 22, 8:00 AM)
Low31 °F (May 25, 6:00 AM)12% (May 14, 3:00 PM)29.68 "Hg (May 26, 3:00 PM)
Average52 °F78%30.08 "Hg
* Reported May 13 8:00 PM — May 28 8:00 PM, Mudgee, Weather by CustomWeather, © 2016

Note: Actual official high and low records may vary slightly from our data, if they occured in-between our weather recording intervals... More about our weather records

Advertising

Mudgee Weather History for the Previous 24 Hours

Scroll right to see more
 ConditionsComfort  
Time TempWeatherWind HumidityBarometerVisibility
8:00 PM
Sat, May 28
46 °FCool.12 mph83%29.96 "HgN/A
6:00 PM47 °FPassing clouds.8 mph85%29.91 "HgN/A
5:00 PM47 °FCool.8 mph82%29.88 "HgN/A
3:00 PM51 °FOvercast.12 mph76%29.83 "HgN/A
2:00 PM48 °FCool.14 mph85%29.81 "HgN/A
12:00 PM47 °FOvercast.13 mph86%29.80 "HgN/A
11:00 AM47 °FCool.8 mph95%29.81 "HgN/A
9:00 AM47 °FOvercast.8 mph96%29.80 "HgN/A
8:00 AM46 °FCool.6 mph98%29.80 "HgN/A
6:00 AM44 °FOvercast.3 mph98%29.80 "HgN/A
5:00 AM42 °FQuite cool.5 mph98%29.80 "HgN/A
3:00 AM39 °FOvercast.7 mph98%29.81 "HgN/A
2:00 AM39 °FChilly.7 mph98%29.83 "HgN/A
12:00 AM46 °FPassing clouds.5 mph86%29.86 "HgN/A
11:00 PM
Fri, May 27
46 °FCool.6 mph84%29.88 "HgN/A
9:00 PM44 °FQuite cool.6 mph84%29.87 "HgN/A
Weather by CustomWeather, © 2016

See weather overviewHow to use our weather pages